TimePST,TemperatureF,Dew PointF,Humidity,Sea Level PressureIn,VisibilityMPH,Wind Direction,Wind SpeedMPH,Gust SpeedMPH,PrecipitationIn,Events,Conditions,WindDirDegrees,DateUTC
12:53 AM,44.1,43.0,96,30.10,7.0,Calm,Calm,-,N/A,Fog,Patches of Fog,0,2012-12-09 08:53:00
1:53 AM,41.0,39.9,96,30.10,7.0,Calm,Calm,-,N/A,Fog,Patches of Fog,0,2012-12-09 09:53:00
2:53 AM,43.0,42.1,97,30.11,7.0,East,3.5,-,N/A,Fog,Patches of Fog,100,2012-12-09 10:53:00
3:53 AM,39.9,39.9,100,30.12,4.0,Calm,Calm,-,N/A,Fog,Clear,0,2012-12-09 11:53:00
4:53 AM,39.9,37.9,93,30.12,5.0,Calm,Calm,-,N/A,Fog,Clear,0,2012-12-09 12:53:00
5:53 AM,41.0,39.9,96,30.14,4.0,Calm,Calm,-,N/A,Fog,Clear,0,2012-12-09 13:53:00
6:53 AM,41.0,37.9,89,30.15,8.0,Calm,Calm,-,N/A,,Clear,0,2012-12-09 14:53:00
7:53 AM,39.9,39.0,97,30.15,10.0,Calm,Calm,-,N/A,Fog,Shallow Fog,0,2012-12-09 15:53:00
8:53 AM,48.9,43.0,80,30.17,10.0,Calm,Calm,-,N/A,,Clear,0,2012-12-09 16:53:00
9:53 AM,50.0,41.0,71,30.19,10.0,ENE,5.8,-,N/A,,Clear,60,2012-12-09 17:53:00
10:53 AM,53.6,42.8,67,30.17,10.0,Variable,3.5,-,N/A,,Clear,0,2012-12-09 18:53:00
11:53 AM,54.0,43.0,66,30.15,10.0,East,6.9,-,N/A,,Clear,90,2012-12-09 19:53:00
12:53 PM,57.9,43.0,58,30.13,10.0,East,3.5,-,N/A,,Clear,90,2012-12-09 20:53:00
1:53 PM,59.0,43.0,55,30.12,10.0,SE,3.5,-,N/A,,Clear,130,2012-12-09 21:53:00
2:53 PM,60.1,45.0,57,30.11,10.0,SE,4.6,-,N/A,,Clear,130,2012-12-09 22:53:00
3:53 PM,61.0,48.0,62,30.11,10.0,Calm,Calm,-,N/A,,Clear,0,2012-12-09 23:53:00
4:53 PM,55.9,46.9,72,30.12,10.0,East,3.5,-,N/A,,Clear,80,2012-12-10 00:53:00
5:53 PM,54.0,43.0,66,30.13,10.0,Calm,Calm,-,N/A,,Clear,0,2012-12-10 01:53:00
6:53 PM,55.0,44.1,67,30.14,10.0,South,3.5,-,N/A,,Clear,190,2012-12-10 02:53:00
7:53 PM,51.1,43.0,74,30.16,10.0,West,3.5,-,N/A,,Clear,280,2012-12-10 03:53:00
8:53 PM,48.0,42.1,80,30.17,10.0,Calm,Calm,-,N/A,,Clear,0,2012-12-10 04:53:00
9:53 PM,48.0,44.1,86,30.19,10.0,SE,3.5,-,N/A,,Clear,130,2012-12-10 05:53:00
10:53 PM,48.0,45.0,89,30.20,10.0,SE,6.9,-,N/A,,Clear,130,2012-12-10 06:53:00
11:53 PM,43.0,42.1,97,30.20,6.0,Calm,Calm,-,N/A,,Clear,0,2012-12-10 07:53:00